Location: Kimberly
(42.5380°N, 114.3640°W)
Time: 01:15:19
(UTC-07:00)

Envisat - Visible Passes

Search period start: 25 January 2021 00:00
Search period end: 04 February 2021 00:00
Orbit: 764 x 766 km, 98.1° (Epoch: 24 January)

Date Brightness Start Highest point End Pass type
(mag) Time Alt. Az. Time Alt. Az. Time Alt. Az.
25 Jan 4.1 05:57:59 10° NNE 06:02:51 45° E 06:07:42 10° S visible
25 Jan 6.1 18:54:27 10° SW 18:57:26 16° W 19:00:25 10° NW visible
26 Jan 5.5 05:22:00 10° NE 05:25:48 21° E 05:29:33 10° SE visible
26 Jan 3.2 07:00:11 10° N 07:05:03 48° WNW 07:09:54 10° SW visible
26 Jan 5.0 18:15:43 10° SSW 18:20:17 34° W 18:24:54 10° NNW visible
27 Jan 3.1 06:23:13 10° NNE 06:28:19 79° ESE 06:33:24 10° S visible
28 Jan 4.6 05:46:44 10° NNE 05:51:24 36° E 05:56:01 10° SSE visible
28 Jan 5.9 18:42:16 10° SW 18:45:54 20° W 18:49:34 10° NW visible
29 Jan 5.8 05:11:06 10° NE 05:14:16 16° E 05:17:25 10° SE visible
29 Jan 3.0 06:48:41 10° N 06:53:41 60° WNW 06:58:40 10° SSW visible
30 Jan 3.5 06:11:50 10° NNE 06:16:54 63° E 06:21:54 10° S visible
30 Jan 6.5 19:10:18 10° WSW 19:11:37 11° W 19:12:56 10° WNW visible
31 Jan 5.0 05:35:33 10° NE 05:39:55 28° E 05:44:15 10° SSE visible
31 Jan 3.6 07:14:21 10° N 07:18:57 35° WNW 07:23:31 10° SW visible
31 Jan 5.6 18:30:16 10° SSW 18:34:23 25° W 18:38:33 10° NW visible
01 Feb 6.1 05:00:30 10° ENE 05:02:43 13° E 05:04:56 10° ESE visible
01 Feb 2.9 06:37:13 10° N 06:42:18 76° WNW 06:47:21 10° SSW visible
02 Feb 4.0 06:00:31 10° NNE 06:05:27 49° E 06:10:21 10° S visible
02 Feb 6.2 18:57:22 10° WSW 19:00:03 14° W 19:02:44 10° WNW visible
03 Feb 5.4 05:24:27 10° NE 05:28:24 22° E 05:32:20 10° SE visible
03 Feb 3.3 07:02:47 10° N 07:07:36 44° WNW 07:12:23 10° SW visible
03 Feb 5.2 18:18:25 10° SSW 18:22:53 31° W 18:27:24 10° NNW visible
